Location: Seattle
(47.6060°N, 122.3310°W)
Time: 04:48:48
(UTC-08:00)

ISS - Visible Passes

Search period start: 22 December 2014 00:00
Search period end: 01 January 2015 00:00
Orbit: 404 x 414 km, 51.6° (Epoch: 22 December)

Date Brightness Start Highest point End Pass type
(mag) Time Alt. Az. Time Alt. Az. Time Alt. Az.
22 Dec -2.9 17:08:44 10° WNW 17:11:56 46° NNE 17:15:03 10° E visible
22 Dec -2.1 18:45:22 10° WNW 18:47:50 41° W 18:47:50 41° W visible
23 Dec -3.3 17:54:29 10° WNW 17:57:47 84° SSW 17:59:28 26° ESE visible
23 Dec 0.1 19:31:50 10° W 19:32:15 12° WSW 19:32:15 12° WSW visible
24 Dec -3.3 17:03:35 10° WNW 17:06:53 68° NNE 17:10:09 10° ESE visible
24 Dec -1.4 18:40:27 10° W 18:43:15 26° SW 18:44:04 23° SSW visible
25 Dec -2.1 17:49:19 10° WNW 17:52:27 42° SSW 17:55:33 10° SE visible
26 Dec -2.9 16:58:16 10° WNW 17:01:33 68° SSW 17:04:48 10° SE visible
26 Dec -0.1 18:36:08 10° WSW 18:37:35 12° SW 18:39:02 10° SSW visible
27 Dec -0.5 17:44:17 10° W 17:46:48 20° SW 17:49:18 10° S visible
